Location: Most
(50.5133°N, 13.6207°E)
Time: 01:44:13
(UTC+02:00)

ISS - Visible Passes

Search period start: 29 September 2021 00:00
Search period end: 09 October 2021 00:00
Orbit: 417 x 422 km, 51.6° (Epoch: 28 September)

Date Brightness Start Highest point End Pass type
(mag) Time Alt. Az. Time Alt. Az. Time Alt. Az.
29 Sep -3.8 20:19:10 10° WNW 20:22:32 76° SSW 20:23:39 39° ESE visible
29 Sep -0.5 21:56:22 10° W 21:56:37 11° W 21:56:37 11° W visible
30 Sep -3.8 19:31:50 10° WNW 19:35:13 88° NNE 19:38:10 13° ESE visible
30 Sep -2.0 21:08:50 10° W 21:11:08 27° WSW 21:11:08 27° WSW visible
01 Oct -2.9 20:21:25 10° W 20:24:38 42° SSW 20:25:43 31° SSE visible
02 Oct -3.3 19:34:04 10° WNW 19:37:24 58° SSW 19:40:21 12° SE visible
02 Oct -1.1 21:11:45 10° WSW 21:13:20 14° SW 21:13:20 14° SW visible
03 Oct -1.6 20:23:58 10° W 20:26:35 21° SW 20:28:04 16° S visible
04 Oct -2.1 19:36:28 10° W 19:39:27 30° SSW 19:42:25 10° SSE visible
06 Oct -0.9 19:39:26 10° WSW 19:41:21 14° SW 19:43:15 10° S visible
